Regional Weather Roundup
Issued by NWS New Orleans/Baton Rouge, LA

Home | Current Version | Previous Version | Graphics & Text | Print | Product List | Glossary On
Versions: 1 2 3 4 5 6 7 8 9 10 11 12 13 14 15 16 17 18 19 20 21 22 23 24 25 26 27 28 29 30 31 32 33 34 35 36 37 38 39 40 41 42 43 44 45 46 47 48 49 50
766
ASUS44 KLIX 281607
RWRLIX
NEW ORLEANS REGIONAL WEATHER ROUNDUP
NATIONAL WEATHER SERVICE NEW ORLEANS LA
1100 AM CDT SAT MAR 28 2015

NOTE: "FAIR" INDICATES FEW OR NO CLOUDS BELOW 12,000 FEET WITH NO
      SIGNIFICANT WEATHER AND/OR OBSTRUCTIONS TO VISIBILITY.
      SKY/WX - SKY CONDITION AND SIGNIFICANT WEATHER.
      TMP - AIR TEMPERATURE.     DP    - DEWPOINT TEMPERATURE.
      RH  - RELATIVE HUMIDITY.   PRES  - PRESSURE.
      HI  - HEAT INDEX.          WCI   - WIND CHILL INDEX.

*  THESE STATIONS ARE NOT NWS OR FAA STATIONS AND ARE NOT UNDER
   NWS QUALITY CONTROL.

LAZ038-040-048-061>063-065>067-069-281700-
SOUTHEAST LOUISIANA

CITY           SKY/WX    TMP DP  RH WIND       PRES   REMARKS
N.O. AUDUBON   NOT AVBL
N.O. INTL ARPT MOSUNNY   61  38  42 E8        30.26R
N.O. LAKEFRONT SUNNY     62  38  40 E8        30.27R
SLIDELL        SUNNY     58  37  45 E7        30.27R
BATON ROUGE    SUNNY     60  36  40 E8        30.25R
BOOTHVILLE     SUNNY     60  45  57 E9        30.27S
BELLE CHASSE   MOSUNNY   59  40  49 VRB7      30.27R
BOGALUSA*        N/A     56  34  43 CALM      30.28S
GALLIANO*      SUNNY     64  46  52 MISG      30.26F
NEW ROADS*       N/A     58  37  45 SE8       30.25S
GONZALES*        N/A     61  41  48 SE6       30.25R
HAMMOND*       SUNNY     59  34  38 CALM      30.28S
HOUMA*         SUNNY     63  46  55 E7        30.25R
PORT FOURCHON* SUNNY     63  48  59 E10G16    30.29S

$$

MSZ070-080>082-281700-
SOUTHERN MISSISSIPPI

CITY           SKY/WX    TMP DP  RH WIND       PRES   REMARKS
MCCOMB         SUNNY     54  36  50 VRB5      30.25S
GULFPORT       SUNNY     57  35  43 E8        30.26R
BILOXI         SUNNY     57  35  43 NE7       30.26R
PASCAGOULA     SUNNY     58  35  42 NE6       30.27R
STENNIS ARPT*  SUNNY     55  28  35 CALM      30.27R

$$

COASTAL OBSERVATIONS
LAKE AND NEARSHORE STATIONS

STATION/POSITION TIME  TEMP    WIND        PRES    WAVE
                       AIR SEA DIR/SP/G            HT/PER
                 (UTC) (F)     (DEG/KT/KT) (MB)    (FT/S)
PASCAGOULA       1500   54      70/  8/ 10 1024.3
WAVELAND YACHT   1500   52 64   80/  3/  7 1024.3
GRAND ISLE       1500   60 65   90/  7/ 11 1024.3
SOUTHWEST PASS   1500   63 52   60/ 10/ 12 1024.8
NEW CANAL        1500   58     150/  2/  5 1024.8
SHELL BEACH      1500   56 64   90/  5/  7 1024.7

OFFSHORE STATIONS

STATION/POSITION TIME  TEMP    WIND        PRES    WAVE
                       AIR SEA DIR/SP/G            HT/PER
                 (UTC) (F)     (DEG/KT/KT) (MB)    (FT/S)
64 S DAUPHIN ISL 1550   57 71   50/  8/ 12 1025.2    3/ 4

$$




USA.gov is the U.S. government's official web portal to all federal, state and local government web resources and services.